Flag for U.S.A. Weather past 2 weeks in Atascadero, California, U.S.A.

Now
93 °F

Sunny.


Feels Like: 90 °F
Forecast: 55 / 88 °F
Wind: 3 mph from North

Location: Paso Robles Municipal Airport

Current Time: Jul 23, 2014 at 4:49:35 PM

Latest Report: Jul 23, 2014 at 3:53 PM


Visibility: 10 mi

Pressure: 29.96 "Hg

Humidity: 22%

Dew point: 49 °F

Location of AtascaderoLocation

Historic Weather in Atascadero — Graph

°F

Atascadero temperature yesterday

Maximum temperature yesterday: 83 °F (at 4:53 PM)
Minimum temperature yesterday: 60 °F (at 6:53 AM)
Average temperature yesterday: 67 °F

Past Weeks' High & Low Weather Summary

 TemperatureHumidityPressure
High105 °F (Jul 13, 4:53 PM)90% (Jul 11, 3:53 AM)30.13 "Hg (Jul 11, 3:53 AM)
Low55 °F (Jul 23, 5:53 AM)10% (Jul 13, 4:53 PM)29.80 "Hg (Jul 13, 5:53 PM)
Average71 °F59%29.96 "Hg
* Reported Jul 8 2:53 PM — Jul 23 2:53 PM, Atascadero, Weather by CustomWeather, © 2014

Note: Actual official high and low records may vary slightly from our data, if they occured in-between our weather recording intervals... More about our weather records

Advertising

Atascadero weather history for previous 24 hours

 ConditionsComfort  
Time TempWeatherWind HumidityBarometerVisibility
2:53 PM
Jul 23
90 °FSunny.3 mph26%30.00 "Hg10 mi
1:53 PM88 °FSunny.No wind29%30.02 "Hg10 mi
12:53 PM85 °FSunny.8 mph34%30.05 "Hg10 mi
11:53 AM80 °FSunny.No wind39%30.08 "Hg10 mi
10:53 AM76 °FMild.5 mph45%30.10 "HgN/A
9:53 AM71 °FSunny.9 mph53%30.11 "Hg10 mi
8:53 AM66 °FSunny.5 mph63%30.13 "Hg10 mi
7:53 AM61 °FSunny.No wind70%30.12 "Hg10 mi
6:53 AM55 °FClear.No wind80%30.11 "Hg10 mi
5:53 AM55 °FClear.No wind87%30.11 "Hg10 mi
4:53 AM57 °FClear.3 mph83%30.09 "Hg10 mi
3:53 AM60 °FClear.7 mph80%30.07 "Hg10 mi
2:53 AM61 °FClear.9 mph78%30.07 "Hg10 mi
1:53 AM62 °FClear.9 mph75%30.08 "Hg10 mi
12:53 AM63 °FClear.12 mph70%30.08 "Hg10 mi
10:53 PM
Jul 22
63 °FClear.6 mph70%30.08 "Hg10 mi
9:53 PM64 °FClear.9 mph70%30.07 "Hg10 mi
8:53 PM66 °FSunny.15 mph65%30.04 "Hg10 mi
7:53 PM70 °FSunny.15 mph53%30.03 "Hg10 mi
6:53 PM76 °FSunny.17 mph42%30.01 "Hg10 mi
5:53 PM79 °FSunny.15 mph35%30.01 "Hg10 mi
4:53 PM83 °FSunny.18 mph28%30.01 "Hg10 mi
Weather by CustomWeather, © 2014

See weather overviewHow to use our weather pages